This demonstration page uses our WeatherBlox Daily Observations layout. Learn more.

Left ArrowRight Arrow

53.62937, 11.41316

Hourly Observations for May 6, 2016

Temp ( °F °C ) Dew Point ( °F °C ) Humidity (%) Winds ( mph kmh ) Pressure ( in mb ) Visibility ( mi km ) Precip ( " mm )
6:20 am 06:20 Mostly Sunny 45 7 37 3 76 76 E 8 13 30.18 1022 7 11 N/A
6:50 am 06:50 Mostly Sunny 48 9 39 4 71 71 E 8 13 30.18 1022 7 11 N/A
7:20 am 07:20 Mostly Sunny 50 10 39 4 67 67 E 8 13 30.18 1022 7 11 N/A
7:50 am 07:50 Mostly Sunny 52 11 41 5 67 67 E 10 17 30.18 1022 7 11 N/A
8:20 am 08:20 Mostly Sunny 55 13 41 5 59 59 E 10 17 30.18 1022 7 11 N/A
8:50 am 08:50 Mostly Sunny 57 14 43 6 59 59 E 10 17 30.18 1022 7 11 N/A
9:20 am 09:20 Mostly Sunny 59 15 45 7 59 59 E 9 15 30.18 1022 7 11 N/A
9:50 am 09:50 Mostly Sunny 63 17 46 8 56 56 E 8 13 30.18 1022 7 11 N/A
10:20 am 10:20 Mostly Sunny 66 19 46 8 49 49 ESE 9 15 30.18 1022 7 11 N/A
10:50 am 10:50 Mostly Sunny 68 20 46 8 46 46 ESE 13 20 30.15 1021 7 11 N/A
11:20 am 11:20 Mostly Sunny 66 19 45 7 46 46 ESE 10 17 30.15 1021 7 11 N/A
11:50 am 11:50 Mostly Sunny 70 21 46 8 43 43 SE 12 19 30.15 1021 7 11 N/A
12:20 pm 12:20 Mostly Sunny 70 21 45 7 40 40 SE 15 24 30.15 1021 7 11 N/A
12:50 pm 12:50 Mostly Sunny 70 21 45 7 40 40 ESE 14 22 30.12 1020 7 11 N/A
1:20 pm 13:20 Mostly Sunny 70 21 43 6 38 38 ESE 12 19 30.12 1020 7 11 N/A
1:50 pm 13:50 Mostly Sunny 72 22 45 7 38 38 SE 14 22 30.12 1020 7 11 N/A
2:20 pm 14:20 Mostly Sunny 72 22 43 6 36 36 SE 14 22 30.09 1019 7 11 N/A
2:50 pm 14:50 Mostly Sunny 72 22 43 6 36 36 SSE 13 20 30.09 1019 7 11 N/A
3:20 pm 15:20 Mostly Sunny 73 23 43 6 33 33 SE 10 17 30.09 1019 7 11 N/A
3:50 pm 15:50 Mostly Sunny 73 23 41 5 31 31 ESE 13 20 30.06 1018 7 11 N/A
4:20 pm 16:20 Mostly Sunny 73 23 41 5 31 31 SSE 13 20 30.06 1018 7 11 N/A
4:50 pm 16:50 Mostly Sunny 73 23 41 5 31 31 E 16 26 30.06 1018 7 11 N/A
5:20 pm 17:20 Mostly Sunny 73 23 39 4 29 29 SE 12 19 30.03 1017 7 11 N/A
5:50 pm 17:50 Mostly Sunny 73 23 39 4 29 29 SE 10 17 30.03 1017 7 11 N/A
6:20 pm 18:20 Mostly Sunny 73 23 41 5 31 31 SE 14 22 30.03 1017 7 11 N/A
6:50 pm 18:50 Mostly Sunny 72 22 39 4 31 31 SSE 10 17 30.03 1017 7 11 N/A

Powered by AerisWeather